Retour au catalogue

SL-16 DEB

ActifLEO
NORAD 39850·DEBRIS·🇷🇺 Russia

Lancé Dec 25, 1992 depuis Baikonur Cosmodrome

Loading…

Prochains Passages (prochaines 24 heures)

TLE

PériméSource: Space-Track

Époque: Aug 31, 2026, 23:40 UTC

1 39850U 92093LC  26243.98645660  .00000471  00000-0  29086-3 0  9999
2 39850  71.3393 335.3799 0091968 280.3850  78.6915 14.08181171347003

Suivez SL-16 DEB en temps réel avec AllMySat

Download on the App Store